Date,TemperatureHighF,TemperatureAvgF,TemperatureLowF,DewpointHighF,DewpointAvgF,DewpointLowF,HumidityHigh,HumidityAvg,HumidityLow,PressureMaxIn,PressureMinIn,WindSpeedMaxMPH,WindSpeedAvgMPH,GustSpeedMaxMPH,PrecipitationSumIn
2012-5-16,84,83,78,62,57,53,58,41,36,29.50,29.47,7,2,7,0.00
2012-5-17,99,78,56,69,62,55,98,64,28,29.94,29.47,7,1,7,0.04
2012-5-18,100,69,59,72,62,56,98,85,29,30.00,29.91,5,0,5,0.00
2012-5-19,96,74,60,74,64,60,98,76,38,30.03,29.94,5,0,5,0.00
2012-5-20,99,75,57,71,62,55,98,72,27,30.12,30.00,5,0,5,0.00
2012-5-21,90,69,0,75,64,0,98,85,46,30.09,29.94,7,1,7,0.37
2012-5-22,86,72,59,69,61,56,98,73,40,29.97,29.85,7,1,7,0.37
2012-5-23,91,63,54,69,58,53,98,86,40,29.88,29.76,5,0,5,0.00
2012-5-24,92,71,63,73,66,62,98,86,42,29.88,29.76,7,1,7,0.00
2012-5-25,93,76,64,75,69,63,97,80,48,30.03,29.88,5,0,5,0.00
2012-5-26,96,77,62,75,68,61,98,78,39,30.12,30.00,4,0,4,0.00
2012-5-27,98,76,66,77,70,65,97,82,41,30.03,29.88,4,0,4,0.00
2012-5-28,95,79,68,78,72,66,97,82,48,29.94,29.82,6,0,6,0.00
2012-5-29,97,79,69,74,69,65,97,76,38,29.91,29.79,6,1,6,0.00
2012-5-30,98,75,65,78,68,64,97,81,39,29.91,29.76,12,1,12,0.63
2012-5-31,91,71,64,79,68,64,98,92,63,29.82,29.71,8,1,8,0.20
2012-6-1,81,69,58,66,61,54,98,77,45,29.94,29.76,11,1,11,0.00
2012-6-2,88,69,54,66,60,53,98,77,41,30.00,29.88,4,0,4,0.00
2012-6-3,94,76,62,76,69,60,97,81,49,29.97,29.85,5,0,5,0.00
2012-6-4,94,78,67,77,71,66,98,80,51,29.94,29.74,7,1,7,0.00
2012-6-5,91,77,69,75,71,68,98,83,53,29.76,29.68,9,1,9,0.42
2012-6-6,91,75,67,73,68,63,98,80,44,29.88,29.74,9,0,9,0.00
2012-6-7,93,75,63,75,67,60,91,78,49,29.94,29.85,4,0,4,0.00
2012-6-8,94,77,68,77,70,67,97,79,53,29.94,29.85,8,0,8,0.00
2012-6-9,79,72,69,75,70,67,98,94,85,29.91,29.79,4,0,4,0.71
2012-6-10,82,75,70,75,72,69,98,91,75,29.91,29.82,6,1,6,0.00
2012-6-11,95,84,73,80,76,71,98,79,59,30.00,29.91,13,1,13,0.00
2012-6-12,81,72,67,75,69,66,98,91,69,30.09,29.88,8,1,8,0.09
2012-6-13,90,72,67,78,70,66,98,93,61,30.00,29.91,6,0,6,0.00
2012-6-14,90,76,66,77,70,65,98,83,55,30.00,29.91,6,0,6,0.00
2012-6-15,95,77,67,78,71,66,98,83,56,30.06,29.91,6,0,6,0.00
2012-6-16,94,76,66,77,69,56,98,82,52,30.12,30.00,6,0,6,0.00
2012-6-17,96,75,61,73,67,60,98,79,41,30.06,29.91,5,0,5,0.00
2012-6-18,96,78,68,76,69,64,98,77,43,30.00,29.91,8,1,8,0.00
2012-6-19,93,76,65,76,67,64,97,76,43,30.06,29.97,6,1,6,0.00
2012-6-20,88,74,65,75,67,64,97,82,49,30.06,30.00,6,0,6,0.00
2012-6-21,87,78,64,73,68,63,96,74,50,30.03,29.88,9,0,9,0.00
2012-6-22,91,77,65,75,68,62,97,75,41,29.94,29.82,6,0,6,0.00
2012-6-23,93,80,67,76,72,66,97,78,48,29.91,29.82,5,0,5,0.00
2012-6-24,93,82,72,79,74,69,97,79,53,29.88,29.76,10,0,10,0.00
2012-6-25,95,80,68,76,70,66,94,74,41,29.79,29.68,12,1,12,0.00
2012-6-26,93,81,68,73,67,61,86,65,37,29.79,29.68,10,1,10,0.00
2012-6-27,95,79,62,73,66,60,94,69,33,29.97,29.79,6,0,6,0.00
2012-6-28,96,84,74,78,73,66,95,73,41,30.06,29.97,6,0,6,0.00
2012-6-29,95,79,71,77,73,70,95,83,49,30.00,29.88,5,0,5,0.00
2012-6-30,96,84,72,77,74,71,95,76,48,29.94,29.85,6,0,6,0.00
2012-7-1,94,82,72,77,73,69,93,76,47,30.06,29.91,6,0,6,0.00
2012-7-2,94,81,70,76,70,64,96,72,39,30.12,29.97,10,1,10,0.00
2012-7-3,97,82,68,77,67,59,95,66,29,30.06,29.91,8,0,8,0.00
2012-7-4,97,78,70,77,71,67,97,82,43,30.03,29.94,6,1,6,0.70
2012-7-5,90,76,69,83,73,69,98,90,62,30.06,29.97,9,0,9,0.04
2012-7-6,86,77,70,77,72,69,98,86,64,30.03,29.94,6,0,6,0.00
2012-7-7,91,78,70,78,73,69,98,86,58,30.03,29.94,4,0,4,0.00
2012-7-8,89,77,73,77,73,69,98,88,59,30.06,29.94,8,1,8,0.29
2012-7-9,84,76,72,78,73,71,98,93,77,30.00,29.91,5,0,5,0.29
2012-7-10,80,74,71,76,73,71,98,96,86,29.97,29.88,6,0,6,0.21
2012-7-11,78,72,72,76,72,71,98,97,90,30.00,29.91,6,0,6,0.46
2012-7-12,82,72,69,75,71,68,98,97,74,30.00,29.91,10,0,10,1.53
2012-7-13,78,72,67,77,71,66,98,97,87,30.06,29.97,9,0,9,2.70
2012-7-14,86,75,69,79,73,68,98,94,75,30.06,29.94,5,0,5,0.91
2012-7-15,85,76,73,80,75,72,98,96,80,30.06,29.97,5,0,5,383.32
2012-7-16,88,80,71,80,76,70,98,88,66,30.09,29.94,4,0,4,0.00
2012-7-17,90,78,72,79,74,71,98,89,60,30.03,29.91,6,0,6,0.00
2012-7-18,91,80,72,79,74,70,98,85,54,30.03,29.94,6,1,6,0.20
2012-7-19,80,74,71,78,73,70,98,97,90,30.09,30.00,5,0,5,57.04
2012-7-20,72,71,70,72,70,70,98,98,98,30.00,29.97,2,0,2,0.00
2012-7-25,92,87,77,79,77,75,93,72,60,30.00,29.56,5,0,5,0.00
2012-7-26,90,80,73,78,75,72,98,84,63,30.03,29.91,8,0,8,0.00
2012-7-27,89,78,73,79,75,72,98,91,67,30.06,29.97,7,0,7,0.58
2012-7-28,89,80,72,80,76,71,98,89,67,30.12,30.00,5,0,5,0.00
2012-7-29,94,82,74,82,77,73,98,86,58,30.06,29.97,7,0,7,0.00
2012-7-30,96,86,76,84,80,75,97,82,57,30.03,29.91,6,0,6,0.00
2012-7-31,93,85,77,82,79,76,97,84,63,30.03,29.91,11,0,11,0.00
2012-8-1,95,85,76,82,78,75,97,82,61,30.00,29.88,7,0,7,0.00
2012-8-2,90,82,78,82,78,76,97,90,73,29.97,29.88,4,0,4,0.00
2012-8-3,92,80,76,81,76,72,97,90,64,30.00,29.88,7,0,7,0.00
2012-8-4,93,81,74,80,76,72,97,84,59,30.09,29.91,5,0,5,0.00
2012-8-5,90,81,73,80,76,72,97,87,63,30.15,30.03,7,0,7,0.00
2012-8-6,89,79,74,82,76,71,98,91,69,30.09,29.97,9,0,9,0.09
2012-8-7,91,80,71,80,76,71,98,88,63,30.03,29.91,6,0,6,0.03
2012-8-8,91,80,74,82,76,72,98,88,65,30.03,29.91,6,0,6,0.00
2012-8-9,91,79,71,80,75,64,98,89,52,29.97,29.85,12,0,12,0.47
2012-8-10,88,78,71,79,75,71,98,91,72,29.91,29.82,6,0,6,0.16
2012-8-11,88,77,70,74,71,67,98,83,53,30.00,29.85,6,0,6,0.00
2012-8-12,89,76,65,75,70,64,97,82,50,30.06,29.94,4,0,4,0.00
2012-8-13,90,80,72,80,75,71,97,85,65,30.03,29.91,6,0,6,0.00
2012-8-14,92,81,74,79,75,70,98,84,53,29.97,29.88,8,1,8,0.00
2012-8-15,92,74,70,78,72,69,97,92,59,30.03,29.91,4,0,4,0.08
2012-8-16,92,80,73,81,75,70,98,86,59,30.06,29.94,6,0,6,0.04
2012-8-17,84,74,71,79,72,70,98,96,80,30.06,29.91,8,0,8,1.58
2012-8-18,85,75,71,79,73,70,98,95,80,29.97,29.85,10,0,10,0.79
2012-8-19,82,76,71,76,73,71,98,92,76,29.94,29.85,4,0,4,0.09
2012-8-20,84,76,70,76,72,68,98,87,59,29.97,29.88,9,0,9,0.00
2012-8-21,84,74,66,73,68,64,98,84,53,30.06,29.94,4,0,4,0.00
2012-8-22,87,73,62,72,65,60,98,78,41,30.12,30.03,5,0,5,0.00
2012-8-23,89,74,62,73,65,60,97,77,39,30.12,30.03,2,0,4,0.00
2012-8-24,90,74,64,75,69,62,97,85,55,30.09,29.97,7,0,7,0.20
2012-8-25,86,76,71,78,73,70,98,91,68,30.09,30.00,4,0,4,0.04
2012-8-26,88,76,68,78,72,68,98,89,64,30.12,30.00,4,0,4,0.00
2012-8-27,90,77,66,77,70,66,98,81,51,30.06,29.88,7,0,7,0.00
2012-8-28,87,78,73,78,74,69,95,86,72,29.88,29.76,10,0,10,0.04
2012-8-29,80,77,75,75,74,72,98,90,81,29.79,29.65,9,1,9,2.91
2012-8-30,77,74,73,76,74,73,98,98,93,29.94,29.59,9,2,9,4.10
2012-8-31,83,77,75,81,76,74,98,97,90,30.12,29.94,7,0,7,1.91
2012-9-1,88,78,74,80,76,73,98,95,73,30.15,30.06,6,0,6,0.00
2012-9-2,91,80,74,79,76,73,98,87,62,30.09,29.94,7,0,7,0.00
2012-9-3,92,82,76,80,78,75,97,88,66,30.00,29.88,6,0,6,0.00
2012-9-4,92,83,77,81,78,75,96,86,65,29.97,29.85,5,0,6,0.00
2012-9-5,92,83,77,81,78,76,97,85,64,29.91,29.82,8,0,8,0.00
2012-9-6,93,82,76,80,77,75,98,86,58,29.97,29.88,4,0,4,0.00
2012-9-7,92,80,73,80,76,72,98,87,61,29.97,29.79,4,0,4,0.00
2012-9-8,80,74,66,76,71,62,98,90,75,30.00,29.82,8,1,8,0.00
2012-9-9,80,68,58,65,59,54,97,75,41,30.06,29.97,10,0,10,0.00
2012-9-10,84,69,57,69,60,55,97,76,40,30.12,30.03,7,0,7,0.00
2012-9-11,85,70,59,70,63,57,97,79,48,30.18,30.06,4,0,4,0.00
2012-9-12,87,73,61,73,68,60,97,84,60,30.18,30.06,6,0,6,0.00
2012-9-13,86,75,69,76,70,67,95,85,63,30.18,30.09,7,0,7,0.00
2012-9-14,88,74,68,71,68,65,97,82,50,30.21,30.09,4,0,4,0.00
2012-9-15,86,73,63,72,67,62,97,83,55,30.18,30.06,4,0,4,0.00
2012-9-16,85,75,65,74,70,64,97,87,65,30.06,29.94,4,0,4,0.00
2012-9-17,76,73,70,75,72,69,98,97,94,29.94,29.74,5,0,5,0.33
2012-9-18,78,71,61,70,67,56,98,88,70,30.03,29.76,11,1,11,1.25
2012-9-19,74,63,54,60,54,47,97,76,42,30.12,30.03,6,0,6,0.00
2012-9-20,78,63,51,62,55,49,97,78,41,30.12,30.00,6,0,6,0.00
2012-9-21,82,67,55,68,62,53,97,84,54,30.06,29.97,5,0,5,0.00
2012-9-22,86,72,61,74,66,60,98,83,51,30.12,30.00,6,0,6,0.00
2012-9-23,87,68,62,71,64,51,97,90,51,30.18,30.09,8,0,8,0.00
2012-9-24,81,69,59,66,61,54,93,77,47,30.21,30.09,4,0,4,0.00
2012-9-25,86,72,61,73,67,60,97,85,62,30.12,30.06,4,0,4,0.00
2012-9-26,86,71,59,70,65,57,98,83,53,30.15,30.06,5,0,5,0.00
2012-9-27,87,73,62,73,67,61,97,84,53,30.15,30.03,4,0,4,0.00
2012-9-28,87,74,63,75,68,62,98,84,52,30.12,29.97,4,0,4,0.00
2012-9-29,78,72,69,74,71,68,98,95,85,30.00,29.88,4,0,4,0.37
2012-9-30,74,71,68,74,70,68,98,98,98,29.88,29.53,6,0,6,1.62
2012-10-1,73,64,61,73,64,60,98,97,93,29.76,29.50,9,1,9,0.17
2012-10-2,73,64,58,63,60,56,98,89,60,29.97,29.74,8,0,8,0.08
2012-10-3,78,65,55,67,61,54,98,88,62,30.12,29.97,4,0,4,0.08
2012-10-4,82,69,60,70,64,60,98,87,57,30.24,30.12,5,0,5,0.08
2012-10-5,84,68,57,69,62,56,98,83,45,30.18,30.00,5,0,5,0.08
2012-10-6,68,61,55,64,58,53,98,89,73,30.09,30.00,10,2,10,0.08
2012-10-7,62,55,49,54,48,45,95,80,58,30.18,30.06,10,1,10,0.08
2012-10-8,66,55,48,51,48,46,94,78,53,30.21,30.06,8,1,8,0.08
2012-10-9,72,56,42,56,49,40,97,80,48,30.15,30.00,5,0,5,0.08
2012-10-10,78,60,53,66,57,51,98,92,62,30.18,30.06,6,0,6,0.00
2012-10-11,84,68,56,70,63,55,98,86,56,30.24,30.15,4,0,4,0.00
2012-10-12,84,68,58,70,64,57,98,86,55,30.27,30.18,4,0,4,0.00
2012-10-13,86,69,57,70,63,55,98,83,45,30.24,30.09,8,0,8,0.00
2012-10-14,80,74,69,73,70,67,98,89,73,30.15,29.97,4,1,4,0.08
2012-10-15,79,67,56,69,59,48,98,79,36,30.06,29.97,8,0,8,0.00
2012-10-16,78,62,49,62,56,48,96,84,44,30.00,29.85,5,0,5,0.00
2012-10-17,82,67,54,70,61,53,98,83,53,29.85,29.71,8,1,8,0.00
2012-10-18,76,65,51,71,55,38,98,75,27,29.91,29.68,10,1,10,0.50
2012-10-19,75,57,44,53,43,35,97,66,25,29.91,29.82,8,0,8,0.00
2012-10-20,79,58,42,56,46,39,94,71,29,30.00,29.88,8,0,8,0.00
2012-10-21,84,62,49,62,53,46,95,76,34,30.09,29.97,6,0,6,0.00
2012-10-22,85,64,51,64,55,49,96,77,38,30.15,30.03,6,0,6,0.00
2012-10-23,82,64,50,68,58,49,98,83,53,30.12,30.03,6,0,6,0.00
2012-10-24,84,68,60,69,62,58,98,83,48,30.12,30.00,5,0,5,0.00
2012-10-25,85,67,57,70,61,56,98,83,48,30.03,29.94,6,0,6,0.00
2012-10-26,78,60,48,66,57,47,98,91,64,30.09,29.94,13,1,13,0.00
2012-10-27,56,50,46,48,43,39,96,78,59,30.09,29.97,11,2,11,0.00
2012-10-28,61,49,42,40,37,33,86,64,37,30.15,30.00,13,2,13,0.00
2012-10-29,59,48,38,37,33,29,86,59,35,30.18,30.06,12,2,12,0.00
2012-10-30,67,48,34,40,35,30,90,65,33,30.09,29.94,13,1,13,0.00
2012-10-31,77,57,41,56,48,37,96,75,39,30.00,29.91,8,0,8,0.00
2012-11-1,77,57,42,56,47,40,97,74,35,30.09,29.97,5,0,5,0.00
2012-11-2,84,64,48,62,55,45,92,75,45,30.03,29.97,8,0,8,0.00
2012-11-3,82,66,57,70,59,55,98,82,46,30.15,30.03,7,0,7,0.00
2012-11-4,66,60,48,64,58,47,98,93,72,30.12,30.03,11,0,11,0.33
2012-11-5,53,50,46,52,49,45,98,96,84,30.09,29.91,6,0,6,0.04
2012-11-6,58,51,42,51,47,40,98,87,64,30.06,29.94,6,1,6,0.00
2012-11-7,65,49,38,52,38,32,98,69,34,30.15,29.97,11,1,11,0.00
2012-11-8,66,46,33,46,37,29,94,72,37,30.24,30.15,5,0,5,0.00
2012-11-9,74,52,37,53,43,34,96,75,37,30.27,30.15,6,0,6,0.00
2012-11-10,79,58,42,60,50,40,98,78,44,30.24,30.12,8,0,8,0.00
2012-11-11,82,67,56,62,58,53,98,75,43,30.15,30.06,13,3,13,0.00
2012-11-12,68,53,40,65,48,33,98,83,61,30.39,30.06,14,2,14,0.63
2012-11-13,60,44,34,34,31,27,89,64,33,30.44,30.27,9,1,9,0.00
2012-11-14,62,44,34,36,32,30,87,66,34,30.33,30.24,9,1,9,0.00
2012-11-15,67,46,31,47,37,28,94,73,40,30.30,30.21,9,0,9,0.00
2012-11-16,68,48,35,42,35,32,96,68,29,30.30,30.24,10,0,10,0.00
2012-11-17,72,48,33,46,36,30,93,69,33,30.36,30.27,8,0,8,0.00
2012-11-18,72,48,33,47,36,30,95,70,32,30.33,30.24,6,0,6,0.00
2012-11-19,71,44,34,50,37,31,92,80,36,30.27,30.15,4,0,4,0.00
2012-11-20,73,54,44,53,45,42,93,77,35,30.21,30.09,6,0,6,0.00
2012-11-21,77,54,40,56,44,38,98,74,33,30.21,30.12,6,1,6,0.00
2012-11-22,80,54,38,57,43,35,94,73,31,30.24,30.15,8,0,8,0.00
2012-11-23,65,51,39,57,47,38,94,86,66,30.24,30.15,7,1,7,0.00
2012-11-24,58,41,30,38,30,24,96,68,30,30.30,30.15,8,1,8,0.00
2012-11-25,70,43,26,38,30,22,89,64,28,30.18,30.06,6,1,6,0.00
2012-11-26,69,54,38,65,52,32,98,92,77,30.12,30.03,6,1,6,0.24
2012-11-27,63,54,37,63,53,36,98,97,89,30.30,30.03,13,1,13,1.13
2012-11-28,62,42,32,44,35,29,98,80,36,30.44,30.30,6,0,6,0.00
2012-11-29,69,44,28,46,35,26,98,75,35,30.36,30.24,8,0,8,0.00
2012-11-30,75,49,32,55,41,30,98,79,39,30.27,30.18,7,0,7,0.00
2012-12-1,78,54,37,58,46,35,98,78,36,30.24,30.15,8,1,8,0.00
2012-12-2,83,62,49,67,56,48,98,83,44,30.27,30.18,9,1,9,0.00
2012-12-3,81,62,48,66,56,48,98,86,52,30.21,30.12,12,1,12,0.00
2012-12-4,73,65,58,68,63,57,98,94,74,30.21,30.12,11,1,11,1.24
2012-12-5,63,60,58,62,59,57,98,98,93,30.18,30.03,4,0,4,0.13
2012-12-6,77,64,60,66,61,59,98,91,64,30.03,29.94,6,0,6,0.00
2012-12-8,75,65,56,67,62,56,98,89,67,29.97,29.88,8,0,8,0.00
2012-12-9,77,65,53,68,62,53,98,90,69,30.00,29.85,10,2,10,0.00
2012-12-10,69,54,37,68,52,33,98,93,80,30.00,29.76,14,1,14,2.12
2012-12-11,50,38,32,33,30,28,93,76,45,30.18,30.00,0,0,0,0.00
2012-12-12,55,38,30,34,27,22,93,67,35,30.30,30.15,0,0,0,0.00
2012-12-13,67,40,27,40,29,24,94,70,27,30.33,30.24,0,0,0,0.00
2012-12-14,71,48,30,48,38,27,94,70,36,30.27,30.06,0,0,0,0.00
2012-12-15,74,56,50,61,50,46,90,82,55,30.09,29.91,0,0,0,0.00
2012-12-16,67,62,59,65,61,58,98,95,89,29.94,29.76,0,0,0,1.29
2012-12-17,72,59,44,64,55,42,98,89,49,29.88,29.71,0,0,0,0.17
2012-12-18,72,51,36,52,42,35,98,78,34,30.00,29.88,0,0,0,0.17
2012-12-19,80,59,40,63,49,39,98,75,33,30.00,29.79,0,0,0,0.17
2012-12-20,70,55,42,69,40,19,98,59,36,30.21,29.71,0,0,0,0.04
2012-12-21,57,41,29,22,18,15,71,41,25,30.36,30.21,0,0,0,0.04
2012-12-22,69,36,26,40,24,20,85,67,24,30.36,30.18,0,0,0,0.00
2012-12-23,59,50,36,58,46,30,98,85,71,30.18,29.88,0,0,0,0.08
2012-12-24,74,60,44,66,51,36,98,77,27,29.91,29.82,0,0,0,0.17
2012-12-25,62,53,41,61,51,34,98,94,67,29.88,29.44,0,0,0,4.32
2012-12-26,41,37,34,35,30,26,88,76,66,30.18,29.68,0,0,0,0.00
2012-12-27,51,39,32,35,30,26,83,72,48,30.18,30.00,0,0,0,0.00
2012-12-28,53,46,40,52,43,34,98,90,73,30.00,29.74,0,0,0,1.49
2012-12-29,48,39,29,42,29,22,98,69,40,30.39,29.94,0,0,0,0.00
2012-12-30,55,37,24,32,26,20,89,67,36,30.50,30.30,0,0,0,0.00
2012-12-31,60,46,32,54,39,28,90,78,58,30.30,30.00,0,0,0,0.00
2013-1-1,60,53,42,58,52,42,98,97,89,30.12,29.91,0,0,0,1.32